TimeCST,TemperatureF,Dew PointF,Humidity,Sea Level PressureIn,VisibilityMPH,Wind Direction,Wind SpeedMPH,Gust SpeedMPH,PrecipitationIn,Events,Conditions,WindDirDegrees,DateUTC
12:56 AM,51.1,46.0,83,29.97,10.0,Calm,Calm,-,N/A,,Clear,0,2013-12-02 06:56:00
1:56 AM,50.0,46.0,86,29.97,10.0,Calm,Calm,-,N/A,,Clear,0,2013-12-02 07:56:00
2:56 AM,50.0,46.0,86,29.95,10.0,Calm,Calm,-,N/A,,Partly Cloudy,0,2013-12-02 08:56:00
3:56 AM,48.9,46.0,90,29.94,10.0,NNW,3.5,-,N/A,,Partly Cloudy,330,2013-12-02 09:56:00
4:56 AM,50.0,46.0,86,29.92,10.0,Calm,Calm,-,N/A,,Partly Cloudy,0,2013-12-02 10:56:00
5:56 AM,48.0,45.0,89,29.92,10.0,North,3.5,-,N/A,,Clear,350,2013-12-02 11:56:00
6:56 AM,46.0,43.0,89,29.92,10.0,Calm,Calm,-,N/A,,Clear,0,2013-12-02 12:56:00
7:56 AM,52.0,48.0,86,29.91,10.0,Calm,Calm,-,N/A,,Clear,0,2013-12-02 13:56:00
8:56 AM,60.1,48.0,64,29.91,10.0,Calm,Calm,-,N/A,,Clear,0,2013-12-02 14:56:00
9:56 AM,64.0,50.0,60,29.90,10.0,Calm,Calm,-,N/A,,Partly Cloudy,0,2013-12-02 15:56:00
10:56 AM,68.0,50.0,52,29.88,10.0,Variable,4.6,-,N/A,,Scattered Clouds,0,2013-12-02 16:56:00
11:56 AM,69.1,51.1,53,29.84,10.0,SSW,6.9,-,N/A,,Partly Cloudy,200,2013-12-02 17:56:00
12:56 PM,69.1,50.0,51,29.82,10.0,Variable,4.6,-,N/A,,Partly Cloudy,0,2013-12-02 18:56:00
1:56 PM,70.0,51.1,51,29.81,10.0,South,9.2,-,N/A,,Scattered Clouds,190,2013-12-02 19:56:00
2:56 PM,69.1,52.0,54,29.79,10.0,SSE,9.2,-,N/A,,Scattered Clouds,160,2013-12-02 20:56:00
3:56 PM,66.0,51.1,59,29.79,10.0,South,10.4,-,N/A,,Scattered Clouds,180,2013-12-02 21:56:00
4:56 PM,61.0,54.0,78,29.79,10.0,South,9.2,-,N/A,,Scattered Clouds,180,2013-12-02 22:56:00
5:56 PM,57.9,51.1,78,29.81,10.0,South,3.5,-,N/A,,Scattered Clouds,180,2013-12-02 23:56:00
6:56 PM,57.9,53.1,84,29.81,10.0,South,4.6,-,N/A,,Scattered Clouds,170,2013-12-03 00:56:00
7:56 PM,55.9,53.1,90,29.81,10.0,SSE,4.6,-,N/A,,Partly Cloudy,160,2013-12-03 01:56:00
8:56 PM,57.0,53.1,87,29.81,10.0,SSE,3.5,-,N/A,,Scattered Clouds,160,2013-12-03 02:56:00
9:56 PM,57.0,53.1,87,29.83,10.0,Calm,Calm,-,N/A,,Scattered Clouds,0,2013-12-03 03:56:00
10:56 PM,57.0,53.1,87,29.83,10.0,SSW,3.5,-,N/A,,Scattered Clouds,200,2013-12-03 04:56:00
11:56 PM,55.0,52.0,89,29.81,10.0,South,4.6,-,N/A,,Partly Cloudy,180,2013-12-03 05:56:00